Tucson, Arizona, United States (85701)
Lat: 32.22N, Lon: 110.93W
Wx Zone: AZZ504
Local Info
Past Weather Observations for Sunday, August 31, 2014

NOTE: This archive is for the closest National Weather Service station to Tucson. Information may differ from the station used for current weather conditions.

Click here for Long-term Archive

Time Weather Temperature Dewpoint Humidity Pressure Winds Precip Visibility
23:58
Clear
79°F / 26°C 46°F / 8°C 32% 29.95 in
(1014 mb)
SSE 9.2 mph
(SSE 15 kph)
- 10SM
22:58
Clear
81°F / 27°C 46°F / 8°C 30% 29.95 in
(1014 mb)
SSE 4.6 mph
(SSE 7 kph)
- 10SM
21:58
Clear
82°F / 28°C 45°F / 7°C 26% 29.92 in
(1013 mb)
W 6.9 mph
(W 11 kph)
- 10SM
20:58
Clear
86°F / 30°C 45°F / 7°C 24% 29.92 in
(1013 mb)
SSW 5.8 mph
(SSW 9 kph)
- 10SM
19:58
Clear
91°F / 33°C 43°F / 6°C 18% 29.89 in
(1012 mb)
SSW 6.9 mph
(SSW 11 kph)
- 10SM
18:58
Clear
95°F / 35°C 43°F / 6°C 16% 29.89 in
(1012 mb)
SSW 8.1 mph
(SSW 13 kph)
- 10SM
17:58
Clear
97°F / 36°C 43°F / 6°C 16% 29.86 in
(1011 mb)
SSW 10.4 mph
(SSW 17 kph)
- 10SM
15:58
Clear
100°F / 38°C 43°F / 6°C 14% 29.89 in
(1012 mb)
SSW 9.2 mph
(SSW 15 kph)
- 10SM
14:58
Clear
100°F / 38°C 45°F / 7°C 15% 29.89 in
(1012 mb)
SW 12.7 mph
(SW 20 kph)
- 10SM
13:58
Clear
100°F / 38°C 45°F / 7°C 15% 29.92 in
(1013 mb)
SW 11.5 mph
(SW 19 kph)
- 10SM
12:58
Clear
97°F / 36°C 52°F / 11°C 22% 29.92 in
(1013 mb)
S 8.1 mph
(S 13 kph)
- 10SM
11:58
Clear
95°F / 35°C 52°F / 11°C 23% 29.95 in
(1014 mb)
SW 1.2 mph
(SW 2 kph)
- 10SM
10:58
Clear
93°F / 34°C 52°F / 11°C 24% 29.98 in
(1015 mb)
Calm - 10SM
09:58
Clear
91°F / 33°C 52°F / 11°C 26% 29.98 in
(1015 mb)
S 3.5 mph
(S 6 kph)
- 10SM
08:58
Clear
86°F / 30°C 50°F / 10°C 29% 29.98 in
(1015 mb)
SE 4.6 mph
(SE 7 kph)
- 10SM
07:58
Clear
81°F / 27°C 48°F / 9°C 32% 29.98 in
(1015 mb)
SE 9.2 mph
(SE 15 kph)
- 10SM
06:58
Clear
75°F / 24°C 50°F / 10°C 41% 29.98 in
(1015 mb)
SE 9.2 mph
(SE 15 kph)
- 10SM
05:58
Clear
75°F / 24°C 48°F / 9°C 39% 29.95 in
(1014 mb)
SSE 8.1 mph
(SSE 13 kph)
- 10SM
04:58
Clear
73°F / 23°C 48°F / 9°C 41% 29.95 in
(1014 mb)
ESE 6.9 mph
(ESE 11 kph)
- 10SM
03:58
Clear
75°F / 24°C 48°F / 9°C 39% 29.95 in
(1014 mb)
SSE 4.6 mph
(SSE 7 kph)
- 10SM
02:58
Clear
77°F / 25°C 46°F / 8°C 34% 29.92 in
(1013 mb)
S 8.1 mph
(S 13 kph)
- 10SM
01:58
Clear
79°F / 26°C 46°F / 8°C 32% 29.92 in
(1013 mb)
SE 5.8 mph
(SE 9 kph)
- 10SM
00:58
Clear
81°F / 27°C 46°F / 8°C 30% 29.92 in
(1013 mb)
SE 6.9 mph
(SE 11 kph)
- 10SM
Time Weather Temperature Dewpoint Humidity Pressure Winds Precip Visibility


Weather for websites

WeatherForYou.com, LLC is not responsible for any damages or problems caused by this service. Current weather conditions are obtained from the closest station including government and personal stations which may have varying degrees of accuracy. Weather forecasts are derived from the NOAA NDFD. Like all things, this site belongs to Jesus Christ... He just trusts me to maintain it. If you have any questions or comments email webmaster@weatherforyou.com

Copyright © 2014, WeatherForYou.com LLC. All rights reserved.